Notices

What's New in latest Release from April 7th, 2021:

- Updated Glossary, including Speed of Maximum Gust, and Total Hourly Precipitation

- Updated national and regional climate services offices contacts and prices information

- Addition of station inventory lists for 1981-2010, 1971-2000, and 1961-1990 Normals.

If you haven't already, please take our survey and provide feedback about our website: https://eccc.sondage-survey.ca/f/LanguageSelection.aspx?s=442ca660-fcf1-47c0-95a9-59707d6fd709

Hourly Data Report for September 21, 2004

SHERBROOKE A
QUEBEC

45°26'00.000" N
71°41'00.000" W
241.40 m
7028124
71610
YSC

Download Data

Hourly Data (September 2004)
Hourly Data Report for September 21, 2004
TIME
LST
Temp Definition
°C
Dew Point Definition
°C
Rel Hum Definition
%
Precip. Amount Definition
mm

Wind Dir Definition
10's deg

Wind Spd Definition
km/h
Visibility Definition
km
Stn Press Definition
kPa
Hmdx Definition


Wind Chill Definition


Weather Definition


00:00 11.4 7.9 79   21 6 15.0 99.37      
01:00 11.2 7.9 80   20 6 15.0 99.34      
02:00 10.2 8.5 89     0 15.0 99.32      
03:00 10.1 8.3 89   20 4 15.0 99.29      
04:00 10.3 8.8 90   29 6 15.0 99.32      
05:00 10.7 8.7 87   15 4 15.0 99.36      
06:00 11.0 9.1 88     0 15.0 99.40      
07:00 11.4 9.8 90   36 4 24.1 99.44     Cloudy
08:00 12.4 10.0 85     0 24.1 99.47     Cloudy
09:00 12.9 10.6 86   13 9 16.1 99.42     Thunderstorms,Moderate Rain Showers
10:00 13.4 11.4 88     0 24.1 99.41     Cloudy
11:00 14.5 11.4 82     0 24.1 99.36     Cloudy
12:00 15.7 12.8 83   18 6 24.1 99.29     Cloudy
13:00 16.1 12.4 79     0 24.1 99.29     Cloudy
14:00 16.8 12.9 78   26 7 24.1 99.23     Cloudy
15:00 16.8 12.5 76   24 7 24.1 99.20     Mostly Cloudy
16:00 16.5 12.8 79     0 24.1 99.22     Mostly Cloudy
17:00 16.1 13.5 85     0 15.0 99.17      
18:00 14.9 13.3 90     0 15.0 99.16      
19:00 13.7 12.7 94     0 15.0 99.16      
20:00 13.1 12.3 95   13 4 15.0 99.19      
21:00 13.2 12.4 95     0 15.0 99.17      
22:00 13.0 12.3 96     0 15.0 99.17      
23:00 12.7 12.1 96     0 11.3 99.14      

Notes on Data Quality.

Legend

  • E = Estimated
  • M = Missing
  • NA = Not Available*
  • [empty] = Indicates an unobserved value
Date modified: